User: anonymous   Login
Location: Newark
(23.3970°S, 47.6010°W)
Time: 11:00:04
(UTC+00:00)
Language:

Transit 2A Rocket - Orbit

View from above orbital plane
View from above orbital plane
View from above satellite
View from above satellite

Ground track
Ground track

The orbit data is extracted from the following two-line orbital elements,

1    47U 60007C   20049.58002747 -.00000066 +00000-0 +10222-4 0  9996
2    47 066.6657 115.5490 0224255 029.2569 332.0878 14.42072150117395
Epoch (UTC): 18 February 2020 13:55:14
Eccentricity: 0.0224255
inclination: 66.6657°
perigee height: 592 km
apogee height: 911 km
right ascension of ascending node: 115.5490°
argument of perigee: 29.2569°
revolutions per day: 14.42072150
mean anomaly at epoch: 332.0878°
orbit number at epoch: 11739

The dashed part of the orbit path shows where the satellite is in the earth's shadow,  

DLR